{"data":{"norad_id":67877,"epoch":"2026-09-19T21:54:17.323200Z","epoch_age_seconds":113997,"freshness":"FRESH","line1":"1 67877U 26034AD  26262.91270050  .00015462  00000+0  46766-3 0  9991","line2":"2 67877  53.1587  20.5859 0001075  76.2577 283.8545 15.34410414 33796","mean_motion":15.34410414,"eccentricity":0.0001075,"inclination_deg":53.1587,"raan_deg":20.5859,"arg_perigee_deg":76.2577,"mean_anomaly_deg":283.8545,"bstar":0.00046766,"rev_number":3379,"period_min":93.84712113926,"perigee_km":461.93690078108,"apogee_km":463.40767477795,"semimajor_km":6840.8092877795,"source":"CELESTRAK","updated_at":"2026-09-20T09:00:43.694319Z"}}